星链-1782 (STARLINK-1782 )

导读

STARLINK-1782是美国太空探索技术公司(SpaceX)“星链”星座中的一颗卫星,于2021年2月4日发射升空,属于星链计划第一阶段组网卫星。 它运行在近地轨道,主要为全球提供高速互联网接入服务,尤其覆盖偏远地区与网络基础设施匮乏区域,支撑卫星互联网的全球覆盖布局,是星链巨型星座组网过程中的重要组成卫星。

基本信息
目录编号:
47548
目录名称:
STARLINK-1782
国际标识:
2021-009A
轨道中心:
EARTH
卫星名称:
星链-1782
卫星全名:
星链-1782 (STARLINK-1782 )
卫星状态:
已陨落 最后检测时间 2025-02-05
发射日期:
2021-02-04 UTC
国别 :
美国 (US)
星等 :
--
轨道信息
数据来源 国际轨道数据
星历时间: 2025-02-05T19:58:12+0800
轨道信息已过期498天
半长轴: 6547.942km
偏心率: 0.0005578
轨道倾角: 53.039°
近地点辐角 205.250°
升交点赤经 319.748°
平近点角 300.702°
近地点: 166.154km
远地点: 173.46km
周期: 87.885分钟
每日圈数: 16.384967
详细信息
固有亮度:
5
最大亮度:
2.5
卫星平台:
Starlink V1.0
覆盖范围:
全球
运营商:
太空探索技术公司
运营商所在国:
美国
制造商(研发单位):
太空探索技术公司
制造商所在国:
美国
使用方式:
暂无
卫星简介
星链(Starlink)计划是由太空探索技术公司(SpaceX)提出的一个巨型低轨卫星互联网星座项目,计划在2019年至2024年间在太空搭建由约1.2万颗卫星组成的“星链”网络,其中1584颗将部署在地球上空550千米处的近地轨道,并从2020年开始工作。该卫星仍在工作。